Location: Roanoke
(37.2710°N, 79.9420°W)
Time: 01:08:36
(UTC-05:00)

Vanguard 2 - Visible Passes

Search period start: 19 November 2019 00:00
Search period end: 29 November 2019 00:00
Orbit: 554 x 2937 km, 32.9° (Epoch: 18 November)

Date Brightness Start Highest point End Pass type
(mag) Time Alt. Az. Time Alt. Az. Time Alt. Az.
19 Nov 11.7 05:14:21 10° S 05:22:00 16° SSE 05:28:12 10° ESE visible
20 Nov 11.4 05:29:45 10° SSW 05:40:04 23° SSE 05:47:46 10° ESE visible
21 Nov 12.0 03:45:20 10° SSE 03:47:22 10° SE 03:49:19 10° SE visible
21 Nov 11.1 05:46:04 10° SSW 05:58:07 30° SSE 06:06:35 10° E visible
22 Nov 11.7 03:56:52 10° S 04:05:24 16° SE 04:12:39 10° ESE visible
22 Nov 10.8 06:02:55 10° SW 06:16:08 38° SSE 06:25:00 10° E visible
23 Nov 11.5 04:11:56 10° S 04:23:24 23° SSE 04:32:33 10° ESE visible
23 Nov 10.5 06:20:11 10° SW 06:34:11 46° SSE 06:43:12 10° E visible
24 Nov 11.2 04:27:59 10° SSW 04:41:23 30° SSE 04:51:33 10° E visible
24 Nov 10.3 06:37:45 10° SW 06:52:13 54° SSE 07:01:17 10° E visible
25 Nov 11.8 02:40:13 10° S 02:48:24 15° SE 02:55:50 10° ESE visible
25 Nov 10.9 04:44:38 10° SSW 04:59:22 38° SSE 05:10:07 10° E visible
26 Nov 11.5 02:54:41 10° S 03:06:15 21° SE 03:16:20 10° E visible
26 Nov 10.7 05:01:43 10° SW 05:17:21 45° SSE 05:28:25 10° E visible
27 Nov 11.3 03:12:49 14° S 03:24:07 28° SE 03:35:40 10° E visible
27 Nov 10.4 05:19:08 10° SW 05:35:22 53° SSE 05:46:33 10° E visible
28 Nov 11.8 01:29:49 12° SE 01:31:11 12° SE 01:36:59 10° ESE visible
28 Nov 11.0 03:31:21 20° SSW 03:42:00 36° SSE 03:54:27 10° E visible
28 Nov 10.3 05:36:50 10° WSW 05:53:25 61° SSE 06:04:37 10° E visible
